Cloud_Cover
48 1 35 16 5 2 5 5 5 5 3 14 42 5 29 4 0 0 0 0 4 2 2 46 3 0 0 0 0 0 0 12 3 0 0 0 0 1 4 0 0 0 0
11 4 2 0 0 1 1 5 4 4 3 0 10 33 2 0 0 0 0 0 4 19 0 0 1 0 1 0 0 0 0 0 0 0 0 0 0 0 0 0 0 0 0
4 0 0 0 0 0 0 0 0 5 5 10 43 0 18 3 0 0 4 0 13 30 75 0 0 0 0 0 0 0 0 0 0 0 0 0 0 0 0 0 0 0 0
0 0 0 0 5 0 0 1 5 5 5 5 0 0 11 0 0 6 34 36 65 33 0 0 0 0 0 0 0 0 0 0 0 4 0 0 0 1 13 0 0 2 0
0 0 0 1 2 0 5 5 52 92 46 12 0 0 0 0 0 89 68 89 8 0 0 0 0 0 0 0 0 0 0 0 0 0 0 0 0 1 6 17 5 38 60
0 2 51 100 48 2 0 22 81 88 96 0 0 0 0 0 1 58 42 0 0 0 0 0 0 0 0 0 0 0 0 0 0 0 0 0 0 1 16 22 99 9 28
0 5 5 12 58 2 5 27 16 11 12 1 1 5 5 0 0 8 1 0 0 3 0 0 0 0 0 0 0 0 0 0 0 0 0 0 0 0 0 1 16 82 92
0 4 5 16 94 10 5 72 62 5 39 5 5 0 2 1 23 12 0 1 0 2 2 0 0 0 0 0 3 4 5 2 0 0 0 0 0 0 5 0 10 36 100
2 3 0 5 12 93 69 51 88 16 17 5 0 0 1 4 0 11 3 2 4 9 0 0 0 0 4 5 4 5 1 0 0 0 3 5 5 5 0 2 14 93 9
0 5 21 6 5 44 78 30 91 100 91 7 4 3 0 0 2 4 1 3 0 97 0 3 5 0 0 5 5 5 5 5 5 5 5 5 5 3 15 34 44 59 7
1 5 5 17 57 55 99 94 100 100 99 91 87 100 93 6 5 2 2 0 0 1 0 0 0 0 5 5 5 5 8 5 5 2 2 0 1 17 95 65 100 100 16
5 5 5 5 5 63 86 100 100 93 6 16 72 61 80 40 6 5 1 0 3 5 4 0 0 4 5 5 5 5 5 3 0 0 0 0 2 74 24 95 100 56 0
33 5 0 5 5 5 43 11 12 22 30 5 5 5 5 4 5 5 11 23 17 5 4 5 5 11 5 5 5 4 0 0 0 0 0 0 0 52 60 5 3 12 1
75 98 45 5 5 5 5 5 5 5 53 55 5 5 5 5 5 6 26 26 24 8 7 5 5 5 5 5 0 0 0 0 0 0 0 0 0 5 10 7 4 0 5
12 5 5 5 5 5 5 5 5 16 5 5 5 3 5 59 67 9 30 5 18 13 43 58 28 26 6 5 5 3 1 2 5 6 6 5 5 5 7 5 5 5 12
5 5 10 39 61 30 59 90 61 82 60 39 38 91 67 25 54 73 81 100 100 100 100 85 13 7 0 0 4 2 5 5 5 12 50 51 5 7 69 84 53 40 78
5 5 5 86 100 100 100 100 100 100 64 34 63 95 96 100 100 100 100 100 100 99 22 5 90 69 1 5 5 5 5 5 6 100 88 55 69 48 91 100 98 100 100
95 60 9 45 100 100 100 100 94 39 99 100 100 100 100 100 100 100 100 100 88 20 6 4 38 100 42 0 4 3 5 5 5 100 86 100 100 84 81 99 55 97 100
100 100 100 100 100 100 100 100 100 100 100 100 100 100 100 100 100 100 64 66 91 5 0 0 0 67 94 2 5 3 4 5 7 17 100 100 100 100 34 10 29 88 100
100 100 100 100 100 100 100 100 100 100 100 100 100 100 100 84 29 5 9 5 5 5 0 0 0 0 9 5 55 28 5 5 5 5 39 100 100 100 87 37 66 83 17
100 100 100 100 100 100 100 100 100 100 100 100 96 72 5 5 7 52 21 37 5 4 0 0 0 12 5 5 100 90 90 97 89 100 91 46 100 99 51 98 94 99 95
100 100 100 100 100 100 100 100 100 100 79 38 5 5 8 41 100 100 97 54 2 1 0 1 5 37 100 100 100 100 100 100 100 100 100 100 100 100 100 100 100 100 100
100 100 100 91 100 100 88 98 100 86 99 100 14 5 11 2 0 2 0 1 40 97 72 5 5 6 71 100 97 62 5 5 14 19 99 99 100 98 100 100 100 100 100
100 100 100 100 100 100 100 100 100 83 16 62 100 100 76 5 0 0 0 2 12 7 38 5 5 39 98 88 100 98 47 92 98 53 85 94 89 100 100 100 100 100 100
100 100 100 100 100 100 100 63 13 9 16 88 46 32 23 60 2 1 0 0 8 12 6 99 82 45 81 100 100 100 92 42 46 19 77 100 100 100 82 100 100 100 100
100 100 100 100 100 100 100 84 83 100 82 88 7 5 5 25 5 5 82 14 5 92 94 23 44 55 72 100 100 100 98 38 26 99 100 52 90 100 100 100 100 100 100